weather.gov     
National Weather Service

Regional Weather Roundup
NWS Homepage
This page is being discontinued on March 12, 2014.
The same data is available at this site. Please update your bookmarks.
Thank you, and we apologize for the inconvenience.
Please send an email to SR-SRH.Webmaster@noaa.gov with any concerns.


Current Version
Previous Version:    01  02  03  04  05  06  07  08  09  10  11  12  13  14  15  16  17  18  19  20  21  22  23  24  25  26  27  28  29  30  
   31  32  33  34  35  36  37  38  39  40  41  42  43  44  45  46  47  48  49  50  
[Printable]
853
ASUS44 KFWD 202315
RWRTX
NORTH TEXAS HOURLY WEATHER ROUNDUP
NATIONAL WEATHER SERVICE FORT WORTH TX
600 PM CDT SUN APR 20 2014

NOTE: "FAIR" INDICATES FEW OR NO CLOUDS BELOW 12,000 FEET WITH NO
SIGNIFICANT WEATHER AND/OR OBSTRUCTIONS TO VISIBILITY.

TXZ118-119-210000-
DALLAS/FORT WORTH METROPLEX

CITY           SKY/WX    TMP DP  RH WIND       PRES   REMARKS
DFW AIRPORT    CLOUDY    73  54  51 SE7       30.03F
DALLAS LOVE    CLOUDY    74  53  48 SE14      30.03F
FTW MEACHAM    LGT RAIN  70  61  73 CALM      30.04R
DAL-EXECUTIVE  CLOUDY    74  54  49 SE13      30.03F
FTW-ALLIANCE   TSTM      67  59  75 W5        30.06R FOG
FTW-NAS-JRB    CLOUDY    73  60  63 NW8       30.08S THUNDER
FTW-SPINKS     CLOUDY    73  55  53 SE7       30.05R
ARLINGTON      CLOUDY    74  55  51 SE10      30.04R
GRAND PRAIRIE  PTSUNNY   73  54  49 S8        30.06S
ADDISON        CLOUDY    73  52  46 SE8       30.06R
MESQUITE       CLOUDY    73  54  49 SE7       30.06
LANCASTER      CLOUDY    72  54  52 S3        30.06S
$$

TXZ091>094-102>105-117-120-121-131>134-210000-
NORTH CENTRAL TEXAS

CITY           SKY/WX    TMP DP  RH WIND       PRES   REMARKS
SHRMAN/DENISON CLOUDY    71  53  52 S13G22    30.08S
GAINESVILLE    HVY RAIN  61  59  94 W10       30.13R
BOWIE          DRIZZLE   62  60  94 E9        30.05F
BRIDGEPORT     LGT RAIN  62  62  99 E3        30.08F
DECATUR        RAIN      61  60  98 E6        30.06F
DENTON         RAIN      61  59  94 N7        30.08R FOG
MCKINNEY       CLOUDY    72  53  51 SE7       30.05S
GREENVILLE     CLOUDY    73  50  43 S7        30.07R
ROCKWALL       CLOUDY    74  56  52 SE9       30.05S
TERRELL        CLOUDY    73  56  54 S9        30.07R
WAXAHACHIE     CLOUDY    72  55  54 S5        30.05S
CLEBURNE       CLOUDY    72  59  64 S7        30.05F
GRANBURY       RAIN      67  63  86 CALM      30.05S
$$

TXZ083>090-098>101-113>116-127>130-139>142-154-155-210000-
WESTERN NORTH TEXAS

CITY           SKY/WX    TMP DP  RH WIND       PRES   REMARKS
WICHITA FALLS  MOSUNNY   68  60  75 SE18      30.00S
WF-KICKAPOO    MOSUNNY   69  59  72 SE18      30.03S
VERNON         MOSUNNY   73  59  62 SE23      29.99S
ABILENE        CLOUDY    68  64  87 SE14      30.01F
ABILENE-DYESS  CLOUDY    69  63  81 SE12      30.00F
BRECKENRIDGE   LGT RAIN  66  65  95 E7        30.03F
GRAHAM         RAIN      64  62  94 CALM      30.02S
MINERAL WELLS  LGT RAIN  65  63  93 SE5       30.03S
STEPHENVILLE   CLOUDY    66  61  85 SE3       30.07S
COMANCHE       DRIZZLE   66  65  96 S6        30.04S
BROWNWOOD      PTSUNNY   66  66 100 SE6       30.04S FOG
COLEMAN        DRIZZLE   65  63  94 S5        30.04S
BRADY          CLOUDY    64  64 100 S6        30.04S
$$

TXZ143>147-156>162-174-175-210000-
CENTRAL TEXAS

CITY           SKY/WX    TMP DP  RH WIND       PRES   REMARKS
WACO           CLOUDY    74  58  57 S12       30.02F
WACO-TSTC      PTSUNNY   77  55  47 S8        30.03S
WACO-MCGREGOR  CLOUDY    75  55  50 S12       30.04F
HILLSBORO      PTSUNNY   75  56  50 SE9       30.04R
CORSICANA      MOSUNNY   79  56  45 S9        30.05F
MEXIA          CLOUDY    77  57  51 SE8G20    30.03F
HEARNE         MOSUNNY   80  54  41 SE13G21   30.03F
CAMERON        CLOUDY    78  57  47 S12G18    30.03F
TEMPLE         CLOUDY    73  57  56 S10       30.06S
KILLEEN        CLOUDY    72  61  68 S14G21    30.04F
KILLEEN-SKYLRK MOSUNNY  N/A N/A N/A S9        30.03F
FORT HOOD      CLOUDY    74  60  61 SE10      30.04S
GATESVILLE     CLOUDY    72  61  68 S6        30.06S
HAMILTON       LGT RAIN  68  62  83 S13       30.05S
LAMPASAS       CLOUDY    68  64  88 S5        30.04S
$$

TXZ095>097-106>112-122>126-135>138-148>153-164>167-210000-
EAST TEXAS

CITY           SKY/WX    TMP DP  RH WIND       PRES   REMARKS
PARIS          PTSUNNY   73  57  56 S3        30.07S
SULPHUR SPRNGS LGT RAIN  74  58  58 SW8       30.09R
CLARKSVILLE    CLOUDY    76  56  49 CALM      30.05F
MOUNT PLEASANT CLOUDY    73  57  57 E6        30.05F
GILMER         DRIZZLE   77  59  53 E5        30.04F
MINEOLA        CLOUDY    75  59  57 W3        30.07R
TYLER          CLOUDY    77  54  44 SW12      30.05F
LONGVIEW       CLOUDY    79  56  45 S5        30.04F
MARSHALL       PTSUNNY   76  55  48 S5        30.08S
ATHENS         PTSUNNY   73  55  53 S7        30.05S
PALESTINE      MOSUNNY   79  54  41 S10       30.06F
JACKSONVILLE   PTSUNNY   76  50  41 S5        30.07F
HENDERSON      CLOUDY    78  51  39 S5        30.06F
NACOGDOCHES    SUNNY     81  55  41 S10       30.05F
LUFKIN         SUNNY     83  53  35 S8        30.05F
$$

SUPPLEMENTAL OBSERVATIONS (CENTRAL)

CITY           SKY/WX    TMP DP  RH WIND       PRES   REMARKS
LAKE TEXOMA      N/A     70  54  56 S7          N/A
CADDO GRASSLND   N/A     73  54  49 S8          N/A
PAT MAYSE LAKE   N/A     73  54  49 SE6         N/A
GREENVILLE       N/A     73  55  53 S6          N/A
CEDAR HILL       N/A     73  55  53 SE7G16      N/A
ATHENS           N/A     77  55  47 S5G16       N/A
LAKE LIMESTONE   N/A     79  55  44 S9G17       N/A
MCGREGOR         N/A     75  57  53 S14         N/A
TEMPLE           N/A     75  57  53 S10         N/A
$$

SUPPLEMENTAL OBSERVATIONS (WEST)

CITY           SKY/WX    TMP DP  RH WIND       PRES   REMARKS
MILLERS CREEK    N/A     70  59  68 SE15        N/A
LBJ GRASSLAND    N/A     63  59  88 E5          N/A
GRANBURY         N/A     66  61  82 SE3G21      N/A
COMANCHE         N/A     66  63  88 S9          N/A
HAMBY            N/A     70  63  78 S10         N/A
IVIE RESERVOIR   N/A     68  64  88 SE2         N/A
COLORADO BEND    N/A     66  61  82 S6          N/A
$$

SUPPLEMENTAL OBSERVATIONS (EAST)

CITY           SKY/WX    TMP DP  RH WIND       PRES   REMARKS
CLARKSVILLE      N/A     75  57  53 S5G15       N/A
CADDO LAKE       N/A     79  55  44 S1          N/A
GILMER           N/A     77  57  50 SE3         N/A
HENDERSON        N/A     79  55  44 S6G14       N/A
LUFKIN           N/A     81  52  36 MISG        N/A
N SABINE NF      N/A     81  55  41 MISG        N/A
S SABINE NF      N/A     82  55  39 S3          N/A
$$

SUPPLEMENTAL OBSERVATIONS ARE A COLLECTION OF AUTOMATED INSTRUMENTS
THAT ARE MAINTAINED BY A VARIETY OF FEDERAL AND STATE AGENCIES.
CERTAIN ELEMENTS...SUCH AS HUMIDITY VALUES AND SUSTAINED WIND
SPEEDS...MAY BE APPROXIMATED.





U.S. Dept. of Commerce
NOAA National Weather Service
1325 East West Highway
Silver Spring, MD 20910
E-mail: w-nws.webmaster@noaa.gov
Page last modified: May 16, 2007
NATIONAL WEATHER SERVICE: for Safety, for Work, for Fun - FOR LIFE